Location: Kelshall
(52.0000°N, 0.0500°W)
Time: 20:42:10
(UTC+00:00)

ATLAS 2AS CENTAUR R/B - Pass Details

Date: 21 January 2021
Orbit: 947 x 1265 km, 63.7° (Epoch: 13 February)

Event Time Altitude Azimuth Distance (km) Brightness Sun altitude
Rises 23:01:13 0° 312° (NW) 4,166 6.3 -54.9°
Reaches altitude 10° 23:04:05 10° 315° (NW) 3,165 5.5 -55.1°
Enters shadow 23:04:26 12° 315° (NW) 3,043 5.4 -55.1°
